User: anonymous   Login
Location: Unspecified
(0.0000°N, 0.0000°E)
Time: 22:42:40
(UTC+02:00)
Language:

PSLV R/B - Orbit

View from above orbital plane
View from above orbital plane
View from above satellite
View from above satellite

Ground track
Ground track

The orbit data is extracted from the following two-line orbital elements,

1 29713U 07001E   15184.85776255  .00000653  00000-0  83997-4 0  9998
2 29713 097.6772 168.7698 0024055 282.7451 077.1075 14.84169712458076
Epoch (UTC): 03 July 2015 20:35:10
Eccentricity: 0.0024055
inclination: 97.6772°
perigee height: 599 km
apogee height: 633 km
right ascension of ascending node: 168.7698°
argument of perigee: 282.7451°
revolutions per day: 14.84169712
mean anomaly at epoch: 77.1075°
orbit number at epoch: 45807

The dashed part of the orbit path shows where the satellite is in the earth's shadow,  

DLR